Flag for Turkey Weather past 2 weeks in Bursa, Turkey

Now
67 °F

Clear.


Feels Like: 67 °F
Forecast: 57 / 84 °F
Wind: 2 mph from Northeast

Location: Bursa

Current Time: Jul 1, 2015 at 1:31:14 AM

Latest Report: Jul 1, 2015 at 12:00 AM


Visibility: 9 mi

Pressure: 30.08 "Hg

Humidity: 66%

Dew point: 56 °F

Location of BursaLocation

Historic Weather in Bursa — Graph

°F

Bursa temperature yesterday

Maximum temperature yesterday: 82 °F (at 4:00 PM)
Minimum temperature yesterday: 61 °F (at 6:00 AM)
Average temperature yesterday: 73 °F

Past Weeks' High & Low Weather Summary

 TemperatureHumidityPressure
High91 °F (Jun 16, 2:00 PM)98% (Jun 24, 5:00 AM)30.07 "Hg (Jun 24, 5:00 AM)
Low59 °F (Jun 29, 5:00 AM)38% (Jun 30, 2:00 PM)29.66 "Hg (Jun 18, 3:00 PM)
Average72 °F71%29.87 "Hg
* Reported Jun 15 11:00 PM — Jun 30 11:00 PM, Bursa, Weather by CustomWeather, © 2015

Note: Actual official high and low records may vary slightly from our data, if they occured in-between our weather recording intervals... More about our weather records

Advertising

Bursa weather history for previous 24 hours

 ConditionsComfort  
Time TempWeatherWind HumidityBarometerVisibility
11:00 PM
Tue, Jun 30
70 °FClear.5 mph59%30.07 "Hg9 mi
10:00 PM72 °FClear.5 mph54%30.06 "Hg9 mi
9:00 PM74 °FClear.7 mph51%30.03 "Hg9 mi
7:00 PM80 °FSunny.10 mph42%30.01 "Hg9 mi
5:00 PM82 °FPassing clouds.10 mph43%30.01 "Hg9 mi
4:00 PM82 °FPassing clouds.10 mph41%30.01 "Hg9 mi
3:00 PM82 °FPassing clouds.8 mph41%30.01 "Hg9 mi
2:00 PM82 °FPassing clouds.6 mph38%30.02 "Hg9 mi
1:00 PM81 °FPassing clouds.7 mph42%30.03 "Hg9 mi
12:00 PM79 °FPassing clouds.9 mph40%30.03 "Hg9 mi
11:00 AM78 °FScattered clouds.8 mph43%30.03 "Hg9 mi
10:00 AM75 °FPassing clouds.2 mph59%30.03 "Hg9 mi
9:00 AM72 °FSunny.3 mph67%30.03 "Hg9 mi
8:00 AM69 °FSunny.1 mph72%30.02 "Hg9 mi
7:00 AM66 °FSunny.No wind82%30.01 "Hg9 mi
6:00 AM61 °FSunny.No wind88%30.01 "Hg9 mi
5:00 AM63 °FClear.1 mph85%30.00 "Hg9 mi
4:00 AM65 °FClear.1 mph88%30.00 "Hg9 mi
3:00 AM65 °FClear.1 mph85%30.00 "Hg9 mi
2:00 AM65 °FClear.3 mph88%30.01 "Hg9 mi
1:00 AM66 °FClear.1 mph84%30.01 "Hg9 mi
Weather by CustomWeather, © 2015

See weather overviewHow to use our weather pages